Regional Weather Roundup
Issued by NWS Mt. Holly, NJ

Current Version | Previous Version | Text Only | Print | Product List | Glossary Off
Versions: 1 2 3 4 5 6 7 8 9 10 11 12 13 14 15 16 17 18 19 20 21 22 23 24 25 26 27 28 29 30 31 32 33 34 35 36 37 38 39 40 41 42 43 44 45 46 47 48 49 50

774
ASUS41 KPHI 191811
RWRPHI

REGIONAL WEATHER ROUNDUP
NATIONAL WEATHER SERVICE MOUNT HOLLY NJ
100 PM EST SUN NOV 19 2017

NOTE:  "FAIR" INDICATES FEW OR NO CLOUDS BELOW 12,000 FEET WITH NO
SIGNIFICANT WEATHER AND/OR OBSTRUCTIONS TO VISIBILITY.

 * = STATION DOES NOT REPORT PRECIPITATION (E.G. RAIN, SNOW, ETC.)
        OR FOG.

NJZ015>026-191900-
SOUTHERN NEW JERSEY

CITY           SKY/WX    TMP DP  RH WIND       PRES   REMARKS
POMONA         SUNNY     54  34  46 NW30G37   29.56S
6HR MIN TEMP:  51; 6HR MAX TEMP:  60; 6HR PCP:  0.02;

MILLVILLE      PTSUNNY   56  34  43 W22G37    29.61R
WRIGHTSTOWN    MOSUNNY   53  32  44 NW24G36   29.53R
MOUNT HOLLY    MOSUNNY   52  32  46 W14G32    29.58R
TRENTON        PTSUNNY   51  30  44 W18G32    29.56R
6HR MIN TEMP:  50; 6HR MAX TEMP:  57;


$$
NJZ001>014-191900-
NORTHERN NEW JERSEY

CITY           SKY/WX    TMP DP  RH WIND       PRES   REMARKS
SUSSEX         CLOUDY    45  30  55 W18G28    29.54R
ANDOVER*       NOT AVBL
MORRISTOWN     PTSUNNY   50  30  46 NW21G41   29.53R
NEWARK         PTSUNNY   53  29  39 W29G40    29.51R
TETERBORO      MOSUNNY   50  30  46 NW29G41   29.50R
CALDWELL       MOSUNNY   48  30  49 NW20G36   29.53R
SOMERVILLE     CLOUDY    51  32  48 W12G28    29.53R
ALLAIRE*       PTSUNNY   52  32  46 W25G38    29.52S
TOMS RIVER*    SUNNY     54  33  45 NW24G35   29.54S

$$
PAZ043-044-047-054-055-060>062-066>071-191900-
EASTERN PENNSYLVANIA

CITY           SKY/WX    TMP DP  RH WIND       PRES   REMARKS
PHILADELPHIA   PTSUNNY   53  30  41 W24G31    29.61R
6HR MIN TEMP:  50; 6HR MAX TEMP:  54;

NORTH PHILA    PTSUNNY   54  31  41 W25G36    29.60R
BLUE BELL*     MOSUNNY   48  32  53 W14G25    29.60F
DOYLESTOWN     MOSUNNY   49  30  48 NW14G33   29.57R
QUAKERTOWN*    MOSUNNY   48  30  49 NW14G20   29.59R
PERKASIE*      MOCLDY    48  32  53 W15G23    29.59R
POTTSTOWN      PTSUNNY   47  30  51 NW12G21   29.61R
LANCASTER        N/A     51  32  48 W26G40    29.64R
COATESVILLE    PTSUNNY   46  32  57 NW24G35   29.63S
READING        PTSUNNY   51  34  52 W23G35    29.61R
6HR MIN TEMP:  47; 6HR MAX TEMP:  51;

ALLENTOWN      PTSUNNY   51  32  48 W22G31    29.57S
6HR MIN TEMP:  48; 6HR MAX TEMP:  51;

MOUNT POCONO   NOT AVBL
HAZLETON       PTSUNNY   41  30  65 W14G24    29.60R
LEHIGHTON      FAIR      46  32  57 W13G21    29.60R
WILKES BARRE   CLOUDY    42  27  55 NW16G26   29.59R

$$
DEZALL-MDZ008-012-015-019-020-191900-
DELAWARE AND EASTERN MARYLAND

CITY           SKY/WX    TMP DP  RH WIND       PRES   REMARKS
WILMINGTON     PTSUNNY   55  31  39 NW21G36   29.63S
6HR MIN TEMP:  49; 6HR MAX TEMP:  55;

DOVER          MOSUNNY   54  34  47 W20G30    29.63R
GEORGETOWN     MOSUNNY   54  32  43 NW16G31   29.65R
6HR MIN TEMP:  52; 6HR MAX TEMP:  57; 6HR PCP: TRACE;

EASTON         MOSUNNY   54  30  40 NW26G35   29.72S
ABERDEEN       CLOUDY    53  29  39 W14G30    29.67R
OCEAN CITY     SUNNY     55  35  47 NW22G35   29.64S
WALLOPS ISLAND SUNNY     54  35  48 NW22G32   29.68S
CAMBRIDGE      MOSUNNY   52  32  46 W18G30    29.69S
SALISBURY      SUNNY     53  34  48 W24G35    29.66S

$$
PAZ001-021-NYZ056-072-MDZ011-DCZ001-191900-
OTHER NEARBY LOCATIONS

CITY           SKY/WX    TMP DP  RH WIND       PRES   REMARKS
HARRISBURG     PTSUNNY   48  28  46 NW22G32   29.66R
STATE COLLEGE  CLOUDY    39  27  60 W17G29    29.68R WCI  30
WILLIAMSPORT   CLOUDY    47  28  47 NW22G35   29.62S
BINGHAMTON     CLOUDY    34  26  72 NW12G24   29.54R WCI  25
NEW YORK CITY  MOSUNNY   50  28  42 NW12G28   29.52R
BALTIMORE      PTSUNNY   50  30  46 W21G32    29.71R
WASHINGTON DC  PTSUNNY   51  29  42 W16G30    29.75S

$$




USA.gov is the U.S. government's official web portal to all federal, state and local government web resources and services.